Weather History for Jacksonville, IL

Change the Weather History Date:

Saturday, September 28, 2013

  Actual Average (KSPI) Record (KSPI)
Temperature  
Mean Temperature 70 °F 62 °F  
Max Temperature 83 °F 74 °F 94 °F (1953)
Min Temperature 58 °F 49 °F 33 °F (1942)
Degree Days  
Heating Degree Days 0 6  
Month to date heating degree days 65  
Since 1 July heating degree days 70  
Cooling Degree Days 5 2  
Month to date cooling degree days 124  
Year to date cooling degree days 1094  
Growing Degree Days 20 (Base 50)    
Moisture  
Dew Point 60 °F    
Average Humidity 71    
Maximum Humidity 96    
Minimum Humidity 48    
Precipitation  
Precipitation 0.06 in 0.09 in 2.26 in (1911)
Month to date precipitation 2.71  
Year to date precipitation 28.36  
Snow  
Snow 0.00 in 0.00 in 0.00 in ()
Month to date snowfall 0.0  
Since 1 July snowfall 0.0  
Since 1 September snowfall 0.0  
Snow Depth -    
Sea Level Pressure  
Sea Level Pressure 30.00 in    
Wind  
Wind Speed 8 mph (South)    
Max Wind Speed 20 mph    
Max Gust Speed 30 mph    
Visibility 10 miles    
Events Rain    
T = Trace of Precipitation, MM = Missing Value Source: NWS Daily Summary

Daily Weather History Graph

Daily Weather History Graph

Search for Another Location

Airport:

Trip Planner

Search our weather history database for the weather conditions in past years. The results will help you decide how hot, cold, wet, or windy it might be!

Date:

Astronomy

Sep. 28, 2013 Rise Set
Actual Time 6:54 AM CDT 6:47 PM CDT
Civil Twilight 6:27 AM CDT 7:14 PM CDT
Nautical Twilight 5:56 AM CDT 7:45 PM CDT
Astronomical Twilight 5:24 AM CDT 8:17 PM CDT
Moon 12:42 AM CDT (9/28) 3:06 PM CDT (9/28)
Length of Visible Light 12h 47m
Length of Day
11h 53m
Waning Crescent, 36% of the Moon is Illuminated
Sep 28
Waning Crescent
Oct 4
New
Oct 11
First Quarter
Oct 18
Full
Oct 26
Last Quarter

Hourly Weather History & Observations

Time (CDT) Temp. Heat Index Dew Point Humidity Pressure Visibility Wind Dir Wind Speed Gust Speed Precip Events Conditions
12:15 AM 63.3 °F - 54.0 °F 71% 30.05 in 10.0 mi SE 6.9 mph - N/A   Clear
12:35 AM 62.4 °F - 54.0 °F 74% 30.04 in 10.0 mi SE 5.8 mph - N/A   Clear
12:55 AM 61.7 °F - 53.8 °F 75% 30.04 in 10.0 mi SE 5.8 mph - N/A   Clear
1:15 AM 60.6 °F - 53.6 °F 78% 30.04 in 10.0 mi SE 4.6 mph - N/A   Clear
1:35 AM 59.9 °F - 53.6 °F 80% 30.04 in 10.0 mi SE 4.6 mph - N/A   Clear
1:55 AM 60.3 °F - 53.6 °F 79% 30.04 in 10.0 mi SE 5.8 mph - N/A   Clear
2:15 AM 60.3 °F - 54.0 °F 80% 30.03 in 10.0 mi SE 5.8 mph - N/A   Clear
2:35 AM 60.1 °F - 54.1 °F 81% 30.02 in 10.0 mi SE 6.9 mph - N/A   Clear
2:55 AM 59.7 °F - 54.1 °F 82% 30.02 in 10.0 mi SE 5.8 mph - N/A   Clear
3:15 AM 60.4 °F - 54.5 °F 81% 30.02 in 10.0 mi SE 8.1 mph - N/A   Clear
3:35 AM 59.9 °F - 54.1 °F 81% 30.02 in 10.0 mi SE 6.9 mph - N/A   Clear
3:55 AM 59.2 °F - 54.0 °F 83% 30.02 in 10.0 mi SE 6.9 mph - N/A   Clear
4:15 AM 59.4 °F - 54.1 °F 83% 30.02 in 10.0 mi SE 6.9 mph - N/A   Clear
4:35 AM 60.6 °F - 54.1 °F 79% 30.02 in 10.0 mi SE 6.9 mph - N/A   Clear
4:55 AM 59.9 °F - 54.0 °F 81% 30.02 in 10.0 mi SE 6.9 mph - N/A   Clear
5:15 AM 59.0 °F - 53.8 °F 83% 30.02 in 10.0 mi SE 6.9 mph - N/A   Clear
5:35 AM 58.5 °F - 53.6 °F 84% 30.02 in 10.0 mi SE 6.9 mph - N/A   Clear
5:55 AM 58.8 °F - 53.8 °F 83% 30.02 in 10.0 mi SE 6.9 mph - N/A   Clear
6:15 AM 59.0 °F - 54.0 °F 83% 30.03 in 10.0 mi SE 6.9 mph - N/A   Clear
6:35 AM 59.0 °F - 54.1 °F 84% 30.04 in 10.0 mi SE 6.9 mph - N/A   Clear
6:55 AM 60.3 °F - 55.0 °F 83% 30.04 in 10.0 mi SE 8.1 mph - N/A   Scattered Clouds
7:15 AM 61.5 °F - 55.8 °F 81% 30.04 in 10.0 mi SE 6.9 mph - N/A   Scattered Clouds
7:35 AM 62.2 °F - 56.3 °F 81% 30.05 in 10.0 mi SSE 6.9 mph - N/A   Clear
7:55 AM 63.7 °F - 56.8 °F 78% 30.05 in 10.0 mi SSE 9.2 mph - N/A   Scattered Clouds
8:15 AM 65.8 °F - 57.6 °F 75% 30.04 in 10.0 mi SSE 9.2 mph 16.1 mph N/A   Scattered Clouds
8:35 AM 67.3 °F - 58.1 °F 72% 30.04 in 10.0 mi SSE 11.5 mph 17.3 mph N/A   Clear
8:55 AM 68.4 °F - 59.0 °F 72% 30.04 in 10.0 mi SSE 10.4 mph - N/A   Clear
9:15 AM 70.5 °F - 59.7 °F 69% 30.04 in 10.0 mi South 13.8 mph 19.6 mph N/A   Clear
9:35 AM 72.0 °F - 60.4 °F 67% 30.04 in 10.0 mi South 10.4 mph 19.6 mph N/A   Clear
9:55 AM 74.1 °F - 61.0 °F 63% 30.03 in 10.0 mi South 13.8 mph 19.6 mph N/A   Clear
10:15 AM 75.4 °F - 61.7 °F 62% 30.02 in 10.0 mi South 13.8 mph 23.0 mph N/A   Clear
10:35 AM 77.0 °F - 61.9 °F 59% 30.02 in 10.0 mi South 15.0 mph 19.6 mph N/A   Clear
10:55 AM 77.9 °F - 62.2 °F 58% 30.01 in 10.0 mi South 13.8 mph 23.0 mph N/A   Clear
11:15 AM 79.7 °F - 62.4 °F 55% 30.01 in 10.0 mi South 19.6 mph 25.3 mph N/A   Clear
11:35 AM 79.9 °F - 61.9 °F 54% 30.00 in 10.0 mi South 18.4 mph 24.2 mph N/A   Clear
11:55 AM 81.0 °F 81.9 °F 61.7 °F 52% 30.00 in 10.0 mi South 16.1 mph 25.3 mph N/A   Clear
12:15 PM 80.6 °F 81.6 °F 61.3 °F 52% 30.00 in 10.0 mi SSW 19.6 mph 29.9 mph N/A   Scattered Clouds
12:35 PM 80.6 °F 81.6 °F 61.3 °F 52% 30.00 in 10.0 mi South 15.0 mph 23.0 mph N/A   Clear
12:55 PM 81.9 °F 82.6 °F 61.5 °F 50% 30.00 in 10.0 mi South 15.0 mph 21.9 mph N/A   Clear
1:15 PM 82.8 °F 83.3 °F 61.3 °F 48% 29.99 in 10.0 mi South 17.3 mph 25.3 mph N/A   Clear
1:35 PM 80.4 °F 81.4 °F 61.5 °F 52% 29.98 in 10.0 mi South 11.5 mph - N/A   Scattered Clouds
1:55 PM 81.1 °F 82.1 °F 61.9 °F 52% 29.98 in 10.0 mi South 13.8 mph 21.9 mph N/A   Mostly Cloudy
2:15 PM 79.2 °F - 61.7 °F 55% 29.98 in 10.0 mi South 6.9 mph 20.7 mph N/A   Mostly Cloudy
2:35 PM 79.7 °F - 62.1 °F 55% 29.97 in 10.0 mi South 10.4 mph - N/A   Mostly Cloudy
2:55 PM 79.3 °F - 62.1 °F 55% 29.96 in 10.0 mi SSW 8.1 mph - N/A   Mostly Cloudy
3:15 PM 79.2 °F - 62.6 °F 57% 29.96 in 10.0 mi South 6.9 mph - N/A   Overcast
3:35 PM 78.3 °F - 62.8 °F 59% 29.95 in 7.0 mi South 6.9 mph - N/A Rain Light Rain
3:55 PM 77.7 °F - 63.0 °F 60% 29.94 in 10.0 mi South 9.2 mph - N/A   Overcast
4:15 PM 79.7 °F - 63.1 °F 57% 29.94 in 10.0 mi South 8.1 mph - N/A   Mostly Cloudy
4:35 PM 79.2 °F - 63.0 °F 57% 29.94 in 10.0 mi South 9.2 mph - N/A   Scattered Clouds
4:55 PM 79.3 °F - 63.0 °F 57% 29.93 in 10.0 mi South 8.1 mph 17.3 mph N/A   Scattered Clouds
5:15 PM 79.2 °F - 62.6 °F 57% 29.94 in 10.0 mi South 9.2 mph - N/A   Mostly Cloudy
5:35 PM 78.3 °F - 62.6 °F 58% 29.94 in 10.0 mi South 8.1 mph - N/A   Mostly Cloudy
5:55 PM 77.7 °F - 62.8 °F 60% 29.94 in 10.0 mi South 8.1 mph - N/A   Overcast
6:15 PM 77.2 °F - 62.8 °F 61% 29.94 in 10.0 mi South 5.8 mph - N/A   Overcast
6:35 PM 76.5 °F - 63.0 °F 63% 29.94 in 10.0 mi South 4.6 mph - N/A   Overcast
6:55 PM 76.3 °F - 63.0 °F 63% 29.94 in 10.0 mi South 4.6 mph - N/A   Overcast
7:15 PM 75.7 °F - 63.1 °F 65% 29.94 in 10.0 mi SSW 5.8 mph - N/A   Overcast
7:35 PM 75.2 °F - 63.5 °F 67% 29.94 in 10.0 mi South 5.8 mph - N/A   Overcast
7:55 PM 74.7 °F - 63.5 °F 68% 29.94 in 10.0 mi South 6.9 mph - N/A   Overcast
8:15 PM 75.2 °F - 63.0 °F 66% 29.94 in 10.0 mi South 8.1 mph - N/A   Overcast
8:35 PM 74.7 °F - 63.5 °F 68% 29.95 in 10.0 mi South 8.1 mph - N/A   Overcast
8:55 PM 73.9 °F - 64.2 °F 72% 29.96 in 10.0 mi West 5.8 mph - N/A Rain Light Rain
9:15 PM 70.3 °F - 67.3 °F 90% - 7.0 mi WSW 3.5 mph - 0.01 in Rain Light Rain
9:35 PM 69.8 °F - 67.6 °F 93% 29.98 in 7.0 mi WSW 5.8 mph - 0.01 in Rain Light Rain
9:55 PM 68.2 °F - 66.0 °F 93% 29.99 in 7.0 mi WNW 11.5 mph 17.3 mph 0.02 in Rain Rain
10:15 PM 64.6 °F - 63.3 °F 96% 30.00 in 7.0 mi NW 9.2 mph 16.1 mph 0.02 in Rain Rain
10:35 PM 63.3 °F - 61.9 °F 95% 30.01 in 7.0 mi WNW 10.4 mph - 0.03 in   Light Drizzle
10:55 PM 62.6 °F - 61.5 °F 96% 30.02 in 7.0 mi NW 6.9 mph - 0.03 in Rain Light Rain
11:15 PM 60.8 °F - 59.2 °F 94% 30.03 in 7.0 mi NW 9.2 mph - N/A Rain Rain
11:35 PM 60.3 °F - 59.0 °F 96% 30.03 in 7.0 mi NW 10.4 mph - N/A   Drizzle
11:55 PM 59.9 °F - 58.3 °F 94% 30.04 in 10.0 mi NW 9.2 mph - 0.01 in   Overcast